Weather History for Okeechobee, FL

Change the Weather History Date:

Wednesday, July 17, 2013

  Actual Average Record
Temperature  
Mean Temperature 76 °F -  
Max Temperature 82 °F 90 °F 94 °F (1981)
Min Temperature 69 °F 73 °F 67 °F (1988)
Cooling Degree Days 10    
Growing Degree Days 26 (Base 50)    
Moisture  
Dew Point 72 °F    
Average Humidity 92    
Maximum Humidity 100    
Minimum Humidity 74    
Precipitation  
Precipitation 0.26 in - - ()
Sea Level Pressure  
Sea Level Pressure 30.13 in    
Wind  
Wind Speed 4 mph (ENE)    
Max Wind Speed 12 mph    
Max Gust Speed 21 mph    
Visibility 10 miles    
Events Rain , Thunderstorm    
Averages and records for this station are not official NWS values.
T = Trace of Precipitation, MM = Missing Value Source: NWS Daily Summary

Daily Weather History Graph

Daily Weather History Graph

Search for Another Location

Airport:

Trip Planner

Search our weather history database for the weather conditions in past years. The results will help you decide how hot, cold, wet, or windy it might be!

Date:

Astronomy

Jul. 17, 2013 Rise Set
Actual Time 6:39 AM EDT 8:19 PM EDT
Civil Twilight 6:13 AM EDT 8:45 PM EDT
Nautical Twilight 5:42 AM EDT 9:16 PM EDT
Astronomical Twilight 5:10 AM EDT 9:48 PM EDT
Moon 3:13 PM EDT (7/17) 1:35 AM EDT (7/17)
Length of Visible Light 14h 31m
Length of Day
13h 39m
Waxing Gibbous, 67% of the Moon is Illuminated
Jul 17
Waxing Gibbous
Jul 22
Full
Jul 29
Last Quarter
Aug 6
New
Aug 14
First Quarter

Hourly Weather History & Observations

Time (EDT) Temp. Heat Index Dew Point Humidity Pressure Visibility Wind Dir Wind Speed Gust Speed Precip Events Conditions
12:15 AM 71.6 °F - 71.6 °F 100% 30.15 in 10.0 mi ENE 4.6 mph - N/A   Clear
12:35 AM 71.6 °F - 71.6 °F 100% 30.15 in 10.0 mi ENE 4.6 mph - N/A   Clear
12:55 AM 71.6 °F - 71.6 °F 100% 30.15 in 10.0 mi ENE 3.5 mph - N/A   Clear
1:15 AM 71.6 °F - 71.6 °F 100% 30.15 in 10.0 mi NE 4.6 mph - N/A   Clear
1:35 AM 71.6 °F - 71.6 °F 100% 30.14 in 10.0 mi NE 3.5 mph - N/A   Clear
1:55 AM 71.6 °F - 71.6 °F 100% 30.14 in 10.0 mi NE 3.5 mph - N/A   Clear
2:15 AM 71.6 °F - 71.6 °F 100% 30.13 in 10.0 mi NNE 3.5 mph - N/A   Clear
2:35 AM 71.6 °F - 69.8 °F 94% 30.12 in 10.0 mi NE 4.6 mph - N/A   Clear
2:55 AM 69.8 °F - 69.8 °F 100% 30.12 in 10.0 mi NE 3.5 mph - N/A   Clear
3:15 AM 71.6 °F - 71.6 °F 100% 30.10 in 10.0 mi NE 4.6 mph - N/A   Clear
3:35 AM 71.6 °F - 71.6 °F 100% 30.10 in 10.0 mi NE 4.6 mph - N/A   Clear
3:55 AM 71.6 °F - 71.6 °F 100% 30.11 in 10.0 mi ENE 3.5 mph - N/A   Clear
4:15 AM 71.6 °F - 71.6 °F 100% 30.12 in 10.0 mi Calm Calm - N/A   Clear
4:35 AM 71.6 °F - 71.6 °F 100% 30.11 in 10.0 mi Calm Calm - N/A   Clear
4:55 AM 71.6 °F - 71.6 °F 100% 30.11 in 10.0 mi ENE 3.5 mph - N/A Rain Rain
5:15 AM 71.6 °F - 71.6 °F 100% 30.11 in 7.0 mi ENE 3.5 mph - 0.02 in Rain Light Rain
5:35 AM 71.6 °F - 71.6 °F 100% 30.10 in 7.0 mi ENE 3.5 mph - 0.03 in Rain Light Rain
5:55 AM 71.6 °F - 71.6 °F 100% 30.11 in 10.0 mi Calm Calm - 0.05 in Rain Light Rain
6:15 AM 71.6 °F - 71.6 °F 100% 30.11 in 10.0 mi NE 4.6 mph - N/A Rain Light Rain
6:35 AM 71.6 °F - 71.6 °F 100% 30.12 in 10.0 mi NE 4.6 mph - N/A   Clear
6:55 AM 71.6 °F - 71.6 °F 100% 30.13 in 10.0 mi NE 3.5 mph - N/A   Clear
7:15 AM 71.6 °F - 71.6 °F 100% 30.14 in 10.0 mi Calm Calm - N/A   Clear
7:35 AM 71.6 °F - 71.6 °F 100% 30.15 in 10.0 mi ENE 3.5 mph - N/A   Clear
7:55 AM 71.6 °F - 71.6 °F 100% 30.15 in 7.0 mi Calm Calm - N/A   Clear
8:15 AM 73.4 °F - 71.6 °F 94% 30.15 in 7.0 mi Calm Calm - N/A Thunderstorm Clear
8:35 AM 73.4 °F - 73.4 °F 100% 30.16 in 10.0 mi ENE 4.6 mph - N/A   Clear
8:55 AM 77.0 °F - 73.4 °F 89% 30.15 in 10.0 mi East 3.5 mph - N/A   Clear
9:15 AM 77.0 °F - 73.4 °F 89% 30.15 in 10.0 mi East 3.5 mph - N/A   Clear
9:35 AM 78.8 °F - 73.4 °F 83% 30.14 in 10.0 mi East 4.6 mph - N/A   Clear
9:55 AM 78.8 °F - 73.4 °F 83% 30.14 in 10.0 mi East 4.6 mph - N/A   Clear
10:15 AM 78.8 °F - 73.4 °F 83% 30.15 in 10.0 mi East 6.9 mph - N/A   Clear
10:35 AM 78.8 °F - 73.4 °F 83% 30.14 in 10.0 mi East 5.8 mph - N/A   Clear
10:55 AM 80.6 °F 85.4 °F 73.4 °F 79% 30.14 in 10.0 mi East 8.1 mph - N/A   Clear
11:15 AM 80.6 °F 86.2 °F 75.2 °F 84% 30.14 in 10.0 mi ENE 4.6 mph - N/A   Scattered Clouds
11:35 AM 80.6 °F 85.4 °F 73.4 °F 79% 30.15 in 10.0 mi East 8.1 mph - N/A   Mostly Cloudy
11:55 AM 82.4 °F 88.2 °F 73.4 °F 74% 30.15 in 10.0 mi East 4.6 mph - N/A   Scattered Clouds
12:15 PM 80.6 °F 85.4 °F 73.4 °F 79% 30.14 in 10.0 mi ENE 6.9 mph - N/A   Mostly Cloudy
12:35 PM 80.6 °F 85.4 °F 73.4 °F 79% 30.14 in 10.0 mi NE 11.5 mph - N/A   Mostly Cloudy
12:55 PM 82.4 °F 88.2 °F 73.4 °F 74% 30.14 in 10.0 mi East 9.2 mph - N/A   Scattered Clouds
1:15 PM 73.4 °F - 71.6 °F 94% 30.15 in 2.5 mi ESE 11.5 mph 19.6 mph 0.09 in Rain Rain
1:35 PM 71.6 °F - 71.6 °F 100% 30.14 in 10.0 mi ESE 6.9 mph - 0.10 in Rain Light Rain
1:55 PM 71.6 °F - 71.6 °F 100% 30.15 in 10.0 mi Calm Calm - 0.10 in Rain , Thunderstorm Light Thunderstorms and Rain
2:15 PM 73.4 °F - 71.6 °F 94% 30.14 in 10.0 mi Calm Calm - N/A Rain , Thunderstorm Light Thunderstorms and Rain
2:35 PM 73.4 °F - 71.6 °F 94% 30.14 in 10.0 mi Calm Calm - 0.02 in Rain Light Rain
2:55 PM 73.4 °F - 73.4 °F 100% 30.14 in 10.0 mi Calm Calm - 0.02 in   Scattered Clouds
3:15 PM 75.2 °F - 71.6 °F 89% 30.14 in 10.0 mi Calm Calm - N/A   Scattered Clouds
3:35 PM 75.2 °F - 71.6 °F 89% 30.13 in 10.0 mi West 3.5 mph - N/A   Scattered Clouds
3:55 PM 75.2 °F - 71.6 °F 89% 30.13 in 10.0 mi Calm Calm - N/A   Mostly Cloudy
4:15 PM 77.0 °F - 73.4 °F 89% 30.12 in 10.0 mi Calm Calm - N/A   Scattered Clouds
4:35 PM 78.8 °F - 73.4 °F 83% 30.10 in 10.0 mi Calm Calm - N/A   Scattered Clouds
4:55 PM 73.4 °F - 71.6 °F 94% 30.09 in 2.0 mi SE 8.1 mph 20.7 mph 0.03 in Rain Light Rain
5:15 PM 73.4 °F - 69.8 °F 88% 30.09 in 10.0 mi SE 5.8 mph - N/A   Scattered Clouds
5:35 PM 75.2 °F - 71.6 °F 89% 30.09 in 10.0 mi SSE 5.8 mph - N/A   Clear
5:55 PM 78.8 °F - 71.6 °F 78% 30.08 in 10.0 mi SE 8.1 mph - N/A   Clear
6:15 PM 77.0 °F - 71.6 °F 83% 30.08 in 10.0 mi SSE 6.9 mph - N/A   Clear
6:35 PM 78.8 °F - 71.6 °F 78% 30.09 in 10.0 mi SE 4.6 mph - N/A   Clear
6:55 PM 78.8 °F - 71.6 °F 78% 30.09 in 10.0 mi SE 5.8 mph - N/A   Clear
7:15 PM 78.8 °F - 71.6 °F 78% 30.10 in 10.0 mi SE 4.6 mph - N/A   Clear
7:35 PM 73.4 °F - 68.0 °F 83% 30.11 in 10.0 mi East 11.5 mph 19.6 mph N/A   Mostly Cloudy
7:55 PM 71.6 °F - 69.8 °F 94% 30.10 in 3.0 mi ENE 5.8 mph - 0.06 in Rain Light Rain
8:15 PM 71.6 °F - 69.8 °F 94% 30.11 in 10.0 mi ENE 3.5 mph - N/A   Scattered Clouds
8:35 PM 71.6 °F - 69.8 °F 94% 30.12 in 10.0 mi East 3.5 mph - N/A   Clear
8:55 PM 71.6 °F - 69.8 °F 94% 30.12 in 10.0 mi Calm Calm - N/A   Clear
9:15 PM 71.6 °F - 69.8 °F 94% 30.12 in 10.0 mi Calm Calm - N/A   Clear
9:35 PM 71.6 °F - 69.8 °F 94% 30.12 in 10.0 mi NE 3.5 mph - N/A   Clear
9:55 PM 71.6 °F - 69.8 °F 94% 30.12 in 10.0 mi Calm Calm - N/A   Clear
10:15 PM 71.6 °F - 69.8 °F 94% 30.13 in 10.0 mi Calm Calm - N/A   Clear
10:35 PM 71.6 °F - 69.8 °F 94% 30.13 in 10.0 mi Calm Calm - N/A   Clear
10:55 PM 71.6 °F - 69.8 °F 94% 30.13 in 10.0 mi NNE 3.5 mph - N/A   Clear
11:15 PM 71.6 °F - 69.8 °F 94% 30.12 in 10.0 mi NE 4.6 mph - N/A   Clear
11:35 PM 71.6 °F - 69.8 °F 94% 30.13 in 10.0 mi Calm Calm - N/A   Clear
11:55 PM 71.6 °F - 69.8 °F 94% 30.12 in 10.0 mi ENE 3.5 mph - N/A   Scattered Clouds